Location: Cortada Guamacho
(10.5667°N, 67.0833°W)
Time: 04:14:51
(UTC+00:00)

S3M - Visible Passes

Search period start: 26 June 2022 00:00
Search period end: 06 July 2022 00:00
Orbit: 948 x 1005 km, 83.0° (Epoch: 25 June)

Date Brightness Start Highest point End Pass type
(mag) Time Alt. Az. Time Alt. Az. Time Alt. Az.
26 Jun 4.2 00:49:31 50° ENE 00:49:31 50° ENE 00:54:57 10° NNE visible
26 Jun 6.5 02:34:09 12° W 02:34:12 12° W 02:36:32 10° WNW visible
27 Jun 4.0 01:14:09 71° WSW 01:14:35 74° W 01:20:47 10° N visible
27 Jun 5.2 23:54:03 19° ESE 23:55:14 20° E 23:59:32 10° NE visible
28 Jun 5.3 01:38:39 29° WSW 01:40:16 34° W 01:45:48 10° NNW visible
29 Jun 4.3 00:18:23 30° SE 00:20:48 43° E 00:26:37 10° NNE visible
29 Jun 6.4 02:02:59 11° WSW 02:06:01 15° W 02:09:24 10° NW visible
30 Jun 3.9 00:42:31 25° S 00:46:26 87° W 00:52:38 10° N visible
30 Jun 5.4 23:23:26 10° SE 23:27:06 16° E 23:30:43 10° NE visible
01 Jul 5.1 01:06:19 10° SSW 01:12:06 40° W 01:17:51 10° NNW visible
01 Jul 4.5 23:47:01 10° SSE 23:52:40 36° E 23:58:14 10° NNE visible
02 Jul 6.3 01:33:43 10° SW 01:37:50 18° W 01:41:55 10° NW visible
03 Jul 3.9 00:12:00 10° S 00:18:16 79° E 00:24:27 10° N visible
04 Jul 4.8 00:37:57 10° SSW 00:43:56 48° W 00:49:52 10° NNW visible
04 Jul 4.8 23:19:12 10° SSE 23:24:32 30° E 23:29:47 10° NNE visible
05 Jul 6.1 01:05:01 10° SW 01:09:39 22° W 01:14:16 10° NW visible
05 Jul 4.0 23:43:56 10° S 23:50:08 66° E 23:56:13 10° NNE visible
